CORVUS BC1

Last updated on Thu Mar 05 2026 00:04:02 GMT+0000 (Coordinated Universal Time)

1 42847U 17042Y 26063.41780098 .00005899 00000+0 41060-3 0 9997 2 42847 97.3955 229.7013 0013253 88.0691 272.2054 15.05759150471322
UTC large
Height (km)
Speed (km/s)
/
Latitude / Longitude
Inclination (degrees)
Orbital Period (minutes)
Azimuth
Elevation
Range (km)
Doppler Factor

Next 0 passes for location: London (51.5072 / 0.1276)

Sorry there are no passes over London.